Location: Navajo
(48.7922°N, 105.0603°W)
Time: 05:53:31
(UTC+00:00)

KKS-1 - Pass Details

Date: 05 July 2022
Orbit: 634 x 649 km, 98.2° (Epoch: 18 August)

Event Time Altitude Azimuth Distance (km) Brightness Sun altitude
Rises 03:50:07 0° 30° (NNE) 2,976 ? -6.3°
Reaches altitude 10° 03:53:15 10° 53° (NE) 2,056 ? -6.6°
Maximum altitude 03:55:51 15° 89° (E) 1,729 ? -6.9°
Drops below altitude 10° 03:58:27 10° 125° (SE) 2,042 ? -7.2°
Enters shadow 03:58:50 - 129° (SE) 2,135 ? -7.3°
